Location: Bakov nad Jizerou
(50.4784°N, 14.9394°E)
Time: 12:47:59
(UTC+00:00)

SL-8 R/B - Pass Details

Date: 25 October 2021
Orbit: 656 x 667 km, 48.4° (Epoch: 29 November)

Event Time Altitude Azimuth Distance (km) Brightness Sun altitude
Rises 18:18:31 0° 272° (W) 2,987 8.4 -24.4°
Reaches altitude 10° 18:20:52 10° 270° (W) 2,076 7.3 -24.8°
Enters shadow 18:25:25 65° 206° (SSW) 729 3.8 -25.5°
